Tracking 31032 objects as of 13-Jul-2025
HD Live streaming from Space Station
objects crossing your sky now

NAVSTAR 77 (USA 289)

Track NAVSTAR 77 (USA 289) now!
NAVSTAR 77 (USA 289) is classified as:


NORAD ID: 43873
Int'l Code: 2018-109A
Perigee: 20,098.5 km
Apogee: 20,278.7 km
Inclination: 55.5 °
Period: 717.9 minutes
Semi major axis: 26559 km
RCS: Unknown
Launch date: December 23, 2018
Source: United States (US)
Launch site: AIR FORCE EASTERN TEST RANGE (AFETR)
PRN: 4
Your satellite tracking list
Your tracking list is empty




NASA's NSSDC Master Catalog

Two Line Element Set (TLE):
1 43873U 18109A   25193.85041995  .00000006  00000-0  00000-0 0  9991
2 43873  55.4775 105.5871 0033923 196.2826  72.0622  2.00571814 48268
Source of the keplerian elements: AFSPC